Regional Weather Roundup
Issued by NWS

Home | Current Version | Previous Version | Graphics & Text | Print | Product List | Glossary On
Versions: 1 2 3 4 5 6 7 8 9 10 11 12 13 14 15 16 17 18 19 20 21 22 23 24 25 26 27 28 29 30 31 32 33 34 35 36 37 38 39 40 41 42 43 44 45 46 47 48 49 50
000
ASUS45 KTFX 291210
RWRMT
MONTANA REGIONAL WEATHER ROUNDUP
NATIONAL WEATHER SERVICE GREAT FALLS MT
600 AM MDT FRI MAY 29 2015

NOTE: "FAIR" INDICATES FEW OR NO CLOUDS BELOW 12000 FEET WITH NO
SIGNIFICANT WEATHER AND/OR OBSTRUCTIONS TO VISIBILITY.

MTZ001>007-043-291300-
WEST OF THE DIVIDE

CITY           SKY/WX    TMP DP  RH WIND       PRES   REMARKS
KALISPELL      CLOUDY    51  42  71 N3        30.19S
MISSOULA       CLOUDY    51  41  68 SE14      30.20S
BUTTE          CLEAR     43  40  89 SE6       30.27S
MULLAN PASS    FOG       42  42 100 SE10G20   30.19S VSB 1/4
DEER LODGE       N/A     43  43 100 CALM      30.29S
EUREKA           N/A     48  45  87 CALM        N/A
HAMILTON         N/A     45  43  93 S7        30.20S
LIBBY            N/A     50  48  93 CALM      30.19S
PLAINS           N/A     46  43  90 CALM      30.17R
RONAN            N/A     44  42  93 CALM      30.21R
THOMPSON FALLS   N/A     45  44  96 CALM      30.19S
$$

MTZ008-052>055-291300-
SOUTHWEST MONTANA

CITY           SKY/WX    TMP DP  RH WIND       PRES   REMARKS
BOZEMAN        CLOUDY    48  44  86 S5        30.28S
DILLON         PTCLDY    45  42  89 E3        30.26R
W YELLOWSTONE  CLEAR     32  32 100 CALM      30.30S
THREE FORKS      N/A     49  29  46 CALM      30.24S
$$

MTZ009-010-012-014-046-048-049-054-291300-
EAST SLOPES AND CENTRAL MONTANA

CITY           SKY/WX    TMP DP  RH WIND       PRES   REMARKS
CUT BANK       FOG       34  34 100 E5        30.27S VSB<1/4
GREAT FALLS    CLOUDY    45  43  93 SE5       30.28F FOG
MALMSTROM AFB  CLOUDY    45  44  97 S3        30.29F
HELENA         CLOUDY    49  43  80 W3        30.27F
CONRAD           N/A     35  35 100 CALM      30.27F
$$

MTZ011-013-016-021-045-047-050-051-291300-
NORTH CENTRAL MONTANA

CITY           SKY/WX    TMP DP  RH WIND       PRES   REMARKS
HAVRE          FOG       37  36  96 E3        30.30S VSB 3/4
LEWISTOWN      CLOUDY    45  41  86 W3        30.31R
N BAR RANCH    CLOUDY    43  39  87 CALM      30.33R
CHINOOK          N/A     36  36 100 CALM      30.33R
FORT BENTON      N/A     48  43  81 CALM      30.31S
$$

MTZ017>020-022>027-061-062-291300-
NORTHEAST MONTANA

CITY           SKY/WX    TMP DP  RH WIND       PRES   REMARKS
GLASGOW        CLEAR     36  32  85 N3        30.32R
JORDAN           N/A     38  37  97 N5        30.31R
SIDNEY         CLOUDY    43  32  65 NW10      30.28R
WOLF POINT     CLEAR     34  32  92 NW5       30.33R
MALTA            N/A     35  29  79 CALM      30.28R
PLENTYWOOD       N/A     39  32  75 N10       30.30R
POPLAR           N/A     34  30  86 CALM      30.33R
SCOBEY           N/A     31  27  85 N5        30.27R
$$

MTZ028>42-056>058-291300-
SOUTHCENTRAL AND SOUTHEAST MONTANA

CITY           SKY/WX    TMP DP  RH WIND       PRES   REMARKS
BAKER          CLOUDY    44  37  76 N17       30.23R
BILLINGS       CLOUDY    46  43  89 N7        30.30R
LIVINGSTON     LGT RAIN  47  46  97 E13       30.28R
MILES CITY     MOCLDY    42  35  76 N10       30.28R
BIG TIMBER       N/A     45  45 100 N6        30.30S
EKALAKA          N/A     42  38  86 NW10      30.17R
LAUREL           N/A     47  43  86 N7        30.26R
ROUNDUP          N/A     46  38  74 CALM      30.20R
$$

REGIONAL REPORTS...DAKOTAS

CITY           SKY/WX    TMP DP  RH WIND       PRES   REMARKS
WILLISTON      CLOUDY    45  31  58 NE15      30.27R
MINOT          CLOUDY    46  35  65 N15G26    30.19R
DICKINSON      CLOUDY    43  39  86 N16       30.18R
BEACH          CLOUDY    41  37  87 N14G20    30.24R
CROSBY         CLOUDY    41  32  70 N15G23    30.28R
WATFORD CITY   CLOUDY    43  34  70 N15       30.23R
BISMARCK       CLOUDY    50  44  80 N17G23    30.13R
GRAND FORKS    CLOUDY    46  41  82 N29G37    30.05R
FARGO          CLOUDY    51  47  86 N26G37    29.97R
BUFFALO SD       N/A     46  44  93 N16       30.12R
RAPID CITY     LGT RAIN  52  50  93 N25G32    30.10R
$$

REGIONAL REPORTS...WYOMING/IDAHO/WASHINGTON

CITY           SKY/WX    TMP DP  RH WIND       PRES   REMARKS
GILLETTE       RAIN      47  45  93 N15       30.20R
SHERIDAN       CLOUDY    47  46  97 N12       30.26R FOG
BUFFALO WY     LGT RAIN  46  44  93 N21G28    30.23R
CODY           CLOUDY    46  46 100 N6        30.27R
YELLOWSTONE LA   N/A     31  29  92 CALM      30.33F
IDAHO FALLS    CLEAR     41  39  93 N7        30.22S
SALMON         PTCLDY    43  39  87 CALM      30.21S
BOISE          CLEAR     60  45  57 SE10      30.08S
SPOKANE        PTCLDY    56  51  84 NE6       30.06S
$$

REGIONAL REPORTS...ALBERTA

CITY           SKY/WX    TMP DP  RH WIND       PRES   REMARKS
EDMONTON       CLEAR     32  25  74 E5        30.30S
CALGARY        CLOUDY    45  39  81 SE9       30.23S
LETHBRIDGE     MOCLDY    34  34 100 S8        30.26F WCI  27
MEDICINE HAT   CLEAR     34  34 100 VRB2      30.31S
$$

REGIONAL REPORTS...SASKATCHEWAN

CITY           SKY/WX    TMP DP  RH WIND       PRES   REMARKS
SWIFT CURRENT  CLEAR     30  27  86 SE7       30.32S WCI  23
REGINA         MOCLDY    41  28  60 N12       30.33R
SASKATOON      PTCLDY    32  28  86 NE3       30.40R
$$


USA.gov is the U.S. government's official web portal to all federal, state and local government web resources and services.